| time (UTC) | temp C | wind direction | speed KPH | gust KPH | rain 1hr cm | rain 24hr cm | rain mn cm | humidity % | barometer mb |
| 20260503030042 | 15 | 258 | 0.0 | 1.6 | 0.00 | 0.00 | 0.00 | 49 | 1015.4 |
| 20260503024625 | 15 | 257 | 0.0 | 6.4 | 0.00 | 0.00 | 0.00 | 52 | 1015.3 |
| 20260503023031 | 16 | 258 | 4.8 | 8.0 | 0.00 | 0.00 | 0.00 | 47 | 1015.2 |
| 20260503021557 | 17 | 257 | 6.4 | 9.7 | 0.00 | 0.00 | 0.00 | 44 | 1015.1 |
| 20260503020106 | 19 | 257 | 3.2 | 9.7 | 0.00 | 0.00 | 0.00 | 41 | 1015.1 |
| 20260503014522 | 21 | 249 | 3.2 | 9.7 | 0.00 | 0.00 | 0.00 | 38 | 1015.1 |
| 20260503013054 | 21 | 248 | 0.0 | 0.0 | 0.00 | 0.00 | 0.00 | 37 | 1015.1 |
| 20260503011627 | 20 | 246 | 0.0 | 3.2 | 0.00 | 0.00 | 0.00 | 39 | 1015.1 |
| 20260503010012 | 21 | 248 | 0.0 | 4.8 | 0.00 | 0.00 | 0.00 | 40 | 1015.2 |
| 20260503004527 | 21 | 247 | 0.0 | 0.0 | 0.00 | 0.00 | 0.00 | 48 | 1015.4 |
| 20260503003029 | 23 | 248 | 0.0 | 6.4 | 0.00 | 0.00 | 0.00 | 36 | 1015.6 |
| 20260503001548 | 23 | 246 | 1.6 | 8.0 | 0.00 | 0.00 | 0.00 | 32 | 1015.7 |
| 20260503000123 | 23 | 231 | 0.0 | 3.2 | 0.00 | 0.00 | 0.00 | 33 | 1015.7 |
| 20260502234610 | 22 | 231 | 0.0 | 3.2 | 0.00 | 0.00 | 0.00 | 35 | 1015.8 |
| 20260502233115 | 21 | 231 | 0.0 | 0.0 | 0.00 | 0.00 | 0.00 | 44 | 1016.0 |
| 20260502231527 | 21 | 231 | 0.0 | 3.2 | 0.00 | 0.00 | 0.00 | 40 | 1016.1 |
| 20260502230020 | 24 | 231 | 0.0 | 0.0 | 0.00 | 0.00 | 0.00 | 31 | 1016.4 |
| 20260502224536 | 24 | 231 | 0.0 | 0.0 | 0.00 | 0.00 | 0.00 | 32 | 1016.6 |
| 20260502044502 | 11 | 230 | 3.2 | 6.4 | 0.00 | 0.00 | 0.00 | 65 | 1018.5 |
| 20260502043045 | 12 | 230 | 0.0 | 3.2 | 0.00 | 0.00 | 0.00 | 61 | 1018.4 |
| 20260502041608 | 12 | 230 | 0.0 | 0.0 | 0.00 | 0.00 | 0.00 | 66 | 1018.3 |
| 20260502040119 | 12 | 230 | 0.0 | 0.0 | 0.00 | 0.00 | 0.00 | 65 | 1018.1 |
| 20260502034558 | 12 | 231 | 0.0 | 6.4 | 0.00 | 0.00 | 0.00 | 60 | 1017.9 |
| 20260502033031 | 12 | 230 | 3.2 | 8.0 | 0.00 | 0.00 | 0.00 | 63 | 1017.7 |
| 20260502031529 | 12 | 231 | 3.2 | 8.0 | 0.00 | 0.00 | 0.00 | 63 | 1017.6 |